Tucson, AZ (85745)

12:49 AM MST on August 31, 2015 (GMT -0700)
Grannen Rd & Camino de Oeste Wash | | Change Station
CLOSE
Current Station
Personal Weather Station
Location: Tucson, AZ
Elevation: 2404 ft
Nearby Weather Stations

Elev 2404 ft 32.26 °N, 111.04 °W | Updated 4 seconds ago

Clear
Clear
80.4 °F
Feels Like 82 °F
N
0.0
Wind Variable Wind from SE
Gusts 2.0 mph

Today
High -- | Low -- °F
--% Chance of Precip.
Yesterday
High -- | Low -- °F
Precip. -- in
5:58 AM 6:49 PM
Waning Gibbous, 96% visible
Pressure 29.81 in
Visibility 10.0 miles
Clouds Clear
Heat Index 82 °F
Dew Point 62 °F
Humidity 54%
Rainfall 0.00 in
Snow Depth Not available.
UV 0 out of 12
Pollen 4.40 out of 12
Air Quality Not available.
Flu Activity Not available.
METAR KDMA 310658Z AUTO 18005KT 10SM CLR 26/17 A2995 RMK AO2 SLP093 T02640166 403620249 $
Pressure 29.81 in
Visibility 10.0 miles
Clouds Clear
Heat Index 82 °F
Dew Point 62 °F
Humidity 54%
Rainfall 0.00 in
Snow Depth Not available.
UV 0 out of 12
Pollen 4.40 out of 12
Air Quality Not available.
Flu Activity Not available.
METAR KDMA 310658Z AUTO 18005KT 10SM CLR 26/17 A2995 RMK AO2 SLP093 T02640166 403620249 $

10-Day Weather Forecast

×

Almanac

Astronomy

Aug. 31, 2015 Rise Set
Actual Time
Civil Twilight
Nautical Twilight
Astronomical Twilight
Moon
Length of Visible Light
Length of Day
Tomorrow will be .
, % of the Moon is Illuminated

Today's Extremes

State Highs State Lows

Community

WunderPhotos

Upload Photos

1,851,220 photos uploaded!

WunderBlogs® & News

Nearby

Air Quality

  Air Quality AQ Index Pollutant
Not available.

Snow Depth

Station Depth Elevation

Earthquake Activity

City Distance Mag. Time & Date
Minimum magnitude displayed is 2.5.

Coastal Water Temperatures

Place Temperature

Stations

Nearby Weather Stations

Station Location Temp. Windchill Dew Point Humidity Wind Precip. Elev Updated Type